TimeIST,TemperatureF,Dew PointF,Humidity,Sea Level PressureIn,VisibilityMPH,Wind Direction,Wind SpeedMPH,Gust SpeedMPH,PrecipitationIn,Events,Conditions,WindDirDegrees,DateUTC
12:00 AM,55.4,48.2,77,29.92,1.2,Variable,2.3,-,N/A,,Mist,0,2013-12-06 18:30:00
1:00 AM,53.6,48.2,82,29.92,1.2,Variable,2.3,-,N/A,,Mist,0,2013-12-06 19:30:00
2:00 AM,53.6,48.2,82,29.92,1.2,Variable,2.3,-,N/A,,Mist,0,2013-12-06 20:30:00
2:30 AM,53,48,78,29.96,1,,2.3,,,,Mist,,2013-12-06 21:00:00
3:00 AM,53.6,48.2,82,29.92,1.2,Variable,2.3,-,N/A,,Mist,0,2013-12-06 21:30:00
4:00 AM,51.8,46.4,82,29.92,0.9,Calm,Calm,-,N/A,,Mist,0,2013-12-06 22:30:00
5:30 AM,48,45,84,29.95,0,Calm,Calm,,,Fog,Patches of Fog,,2013-12-07 00:00:00
5:30 AM,48.2,44.6,87,29.92,0.5,Calm,Calm,-,N/A,Fog,Shallow Fog,0,2013-12-07 00:00:00
6:00 AM,48.2,44.6,87,29.92,0.4,Calm,Calm,-,N/A,Fog,Shallow Fog,0,2013-12-07 00:30:00
6:30 AM,46.4,44.6,93,29.92,0.3,Calm,Calm,-,N/A,Fog,Shallow Fog,0,2013-12-07 01:00:00
7:00 AM,46.4,44.6,93,29.95,0.3,Calm,Calm,-,N/A,Fog,Shallow Fog,0,2013-12-07 01:30:00
7:30 AM,46.4,44.6,93,29.95,0.4,Calm,Calm,-,N/A,Fog,Shallow Fog,0,2013-12-07 02:00:00
8:30 AM,55,49,74,30.01,0,,2.3,,,Fog,Partial Fog,,2013-12-07 03:00:00
9:00 AM,59.0,48.2,67,30.01,0.6,WSW,3.5,-,N/A,,Smoke,250,2013-12-07 03:30:00
10:00 AM,62.6,51.8,68,30.01,0.7,WSW,3.5,-,N/A,,Smoke,250,2013-12-07 04:30:00
11:00 AM,84.2,51.8,33,29.98,1.2,WSW,2.3,-,N/A,,Haze,250,2013-12-07 05:30:00
11:30 AM,72,52,39,29.99,1,SSW,3.5,,,,Haze,200,2013-12-07 06:00:00
12:00 PM,73.4,51.8,47,29.95,1.2,WNW,6.9,-,N/A,,Haze,290,2013-12-07 06:30:00
12:30 PM,75.2,53.6,47,29.95,1.2,NNW,6.9,-,N/A,,Haze,330,2013-12-07 07:00:00
1:00 PM,75.2,51.8,44,29.92,1.2,NW,5.8,-,N/A,,Haze,320,2013-12-07 07:30:00
1:30 PM,75.2,53.6,47,29.92,1.2,WNW,6.9,-,N/A,,Haze,300,2013-12-07 08:00:00
2:00 PM,77.0,51.8,41,29.92,1.2,West,5.8,-,N/A,,Haze,270,2013-12-07 08:30:00
2:30 PM,77,52,31,29.92,1,West,4.6,,,,Haze,270,2013-12-07 09:00:00
2:30 PM,77.0,51.8,41,29.92,1.2,West,4.6,-,N/A,,Haze,270,2013-12-07 09:00:00
3:00 PM,77.0,51.8,41,29.89,1.2,West,4.6,-,N/A,,Haze,270,2013-12-07 09:30:00
3:30 PM,75.2,55.4,50,29.89,1.2,West,3.5,-,N/A,,Haze,270,2013-12-07 10:00:00
4:00 PM,75.2,55.4,50,29.89,1.2,NW,3.5,-,N/A,,Haze,310,2013-12-07 10:30:00
4:30 PM,73.4,55.4,53,29.89,1.2,SW,3.5,-,N/A,,Haze,220,2013-12-07 11:00:00
5:30 PM,67,58,66,29.92,1,,1.2,,,,Mist,,2013-12-07 12:00:00
5:30 PM,66.2,59.0,78,29.89,0.9,Variable,2.3,-,N/A,,Haze,0,2013-12-07 12:00:00
6:00 PM,66.2,59.0,78,29.92,0.9,Calm,Calm,-,N/A,,Mist,0,2013-12-07 12:30:00
6:30 PM,62.6,55.4,77,29.92,0.6,Calm,Calm,-,N/A,,Mist,0,2013-12-07 13:00:00
7:30 PM,59.0,55.4,88,29.92,0.5,Calm,Calm,-,N/A,Fog,Fog,0,2013-12-07 14:00:00
8:00 PM,-9999,-9999,N/A,-9999,0.5,Calm,Calm,-,N/A,Fog,Fog,0,2013-12-07 14:30:00
8:30 PM,58,54,83,29.95,0,Calm,Calm,,,Fog,Partial Fog,,2013-12-07 15:00:00
8:30 PM,59.0,53.6,82,29.92,0.5,Calm,Calm,-,N/A,Fog,Fog,0,2013-12-07 15:00:00
9:00 PM,57.2,53.6,88,29.95,0.5,Calm,Calm,-,N/A,Fog,Fog,0,2013-12-07 15:30:00
10:00 PM,57.2,53.6,88,29.95,0.5,Calm,Calm,-,N/A,Fog,Fog,0,2013-12-07 16:30:00
11:30 PM,54,51,86,,0,Calm,Calm,,,Fog,Partial Fog,,2013-12-07 18:00:00